Scottsbluff, NE

6:24 PM MDT on September 21, 2019 (GMT -0600)
Heilig

Weather History for KBFF - July, 2019

Change the Weather History Date:

Friday, July 26, 2019

  Actual Average Record
Temperature  
Mean Temperature 79 °F -  
Max Temperature 95 °F 88 °F 104 °F (1935)
Min Temperature 63 °F 58 °F 47 °F (1971)
Cooling Degree Days 14    
Growing Degree Days 29 (Base 50)    
Moisture  
Dew Point 62 °F    
Average Humidity 61    
Maximum Humidity 93    
Minimum Humidity 25    
Precipitation  
Precipitation 0.00 in - - ()
Sea Level Pressure  
Sea Level Pressure 29.95 in    
Wind  
Wind Speed 5 mph (East)    
Max Wind Speed 16 mph    
Max Gust Speed -    
Visibility 10 miles    
Events Thunderstorm    
Averages and records for this station are not official NWS values.
T = Trace of Precipitation, MM = Missing Value Source: NWS Daily Summary

Daily Weather History Graph

Daily Weather History Graph

Search for Another Location

Airport or City:

Astronomy

Jul. 26, 2019 Rise Set
Actual Time 5:42 AM MDT 8:19 PM MDT
Civil Twilight 5:10 AM MDT 8:51 PM MDT
Nautical Twilight 4:29 AM MDT 9:31 PM MDT
Astronomical Twilight 3:44 AM MDT 10:16 PM MDT
Moon 12:58 AM MDT (7/26) 3:05 PM MDT (7/26)
Length of Visible Light 15h 41m
Length of Day
14h 36m
Waning Crescent, 33% of the Moon is Illuminated
Jul 26
Waning Crescent
Jul 31
New
Aug 7
First Quarter
Aug 15
Full
Aug 23
Last Quarter

Hourly Weather History & Observations

Time (MDT) Temp. Heat Index Dew Point Humidity Pressure Visibility Wind Dir Wind Speed Gust Speed Precip Events Conditions
12:53 AM 69.1 °F - 61.0 °F 75% 29.90 in 10.0 mi Calm Calm - N/A   Clear
1:53 AM 66.0 °F - 62.1 °F 87% 29.89 in 10.0 mi East 5.8 mph - N/A   Clear
2:53 AM 66.0 °F - 62.1 °F 87% 29.89 in 10.0 mi East 3.5 mph - N/A   Clear
3:53 AM 66.0 °F - 62.1 °F 87% 29.88 in 10.0 mi East 8.1 mph - N/A   Clear
4:53 AM 64.9 °F - 63.0 °F 93% 29.90 in 10.0 mi Calm Calm - N/A   Clear
5:53 AM 64.0 °F - 62.1 °F 93% 29.91 in 8.0 mi Calm Calm - N/A   Clear
6:53 AM 66.0 °F - 63.0 °F 90% 29.92 in 7.0 mi ESE 3.5 mph - N/A   Clear
7:53 AM 72.0 °F - 62.1 °F 71% 29.95 in 7.0 mi WNW 10.4 mph - N/A   Clear
8:53 AM 73.9 °F - 61.0 °F 64% 29.98 in 10.0 mi West 10.4 mph - N/A   Clear
9:53 AM 79.0 °F - 64.9 °F 62% 29.98 in 10.0 mi WNW 8.1 mph - N/A   Clear
10:53 AM 84.0 °F 85.8 °F 64.9 °F 53% 29.98 in 10.0 mi WNW 5.8 mph - N/A   Clear
11:53 AM 87.1 °F 88.3 °F 64.0 °F 46% 29.97 in 10.0 mi WNW 5.8 mph - N/A   Clear
12:53 PM 89.1 °F 90.0 °F 63.0 °F 42% 29.96 in 10.0 mi Variable 5.8 mph - N/A   Clear
1:53 PM 91.0 °F 91.9 °F 63.0 °F 39% 29.95 in 10.0 mi Variable 4.6 mph - N/A   Clear
2:53 PM 93.0 °F 91.7 °F 57.0 °F 30% 29.92 in 10.0 mi East 6.9 mph - N/A   Clear
3:53 PM 93.9 °F 92.0 °F 55.0 °F 27% 29.91 in 10.0 mi East 6.9 mph - N/A   Clear
4:53 PM 95.0 °F 93.7 °F 57.0 °F 28% 29.89 in 10.0 mi Variable 3.5 mph - N/A   Clear
5:53 PM 91.9 °F 91.5 °F 60.1 °F 34% 29.90 in 10.0 mi Calm Calm - N/A   Clear
6:34 PM 82.9 °F 84.6 °F 64.9 °F 54% 30.09 in 10.0 mi East 16.1 mph - N/A   Clear
6:53 PM 82.0 °F 83.1 °F 63.0 °F 52% 29.96 in 10.0 mi East 11.5 mph - N/A   Clear
7:53 PM 79.0 °F - 63.0 °F 58% 29.94 in 10.0 mi East 6.9 mph - N/A   Clear
8:43 PM 77.0 °F - 64.0 °F 64% 30.13 in 10.0 mi Variable 4.6 mph - N/A Thunderstorm Mostly Cloudy
8:53 PM 77.0 °F - 64.0 °F 64% 29.99 in 10.0 mi SSW 5.8 mph - N/A   Scattered Clouds
9:53 PM 73.9 °F - 63.0 °F 68% 29.99 in 10.0 mi North 12.7 mph - N/A   Partly Cloudy
10:53 PM 75.0 °F - 62.1 °F 64% 29.99 in 10.0 mi NNW 6.9 mph - N/A   Clear
11:53 PM 73.0 °F - 63.0 °F 71% 29.97 in 10.0 mi South 9.2 mph - N/A   Scattered Clouds